SXS5ZZ LUKK-LTAI

Flight info

Callsign SXS5ZZ
Flight time 1h 44m
Altitude 35000
Route LIPTA T34 KODRU DCT GLT DCT PILAT DCT GOSLO DCT RIXEN UL620 IST UN616 OVACI UT69 BABSA
Aircraft B738/M-SDE2E3FGHIRWXY/LB1

Departure

Time 2026-05-05 11:35
Airport Chişinău International Airport (LUKK)

Arrival

Time 2026-05-05 13:20
Airport Antalya International Airport (LTAI)
Time Latitude Longitude Altitude Speed Heading
2026-05-05 11:02 46.93371 28.93542 317 ft 0 kts
2026-05-05 11:30 46.93377 28.93543 317 ft 2 kts
2026-05-05 11:30 46.93417 28.93494 318 ft 9 kts 257°
2026-05-05 11:31 46.93338 28.93472 318 ft 13 kts 186°
2026-05-05 11:31 46.93241 28.93455 319 ft 14 kts 186°
2026-05-05 11:31 46.93157 28.93396 320 ft 15 kts 269°
2026-05-05 11:31 46.93168 28.93247 323 ft 14 kts 277°
2026-05-05 11:32 46.93182 28.93091 327 ft 18 kts 277°
2026-05-05 11:32 46.93202 28.92865 332 ft 25 kts 276°
2026-05-05 11:32 46.93228 28.92570 339 ft 29 kts 278°
2026-05-05 11:32 46.93245 28.92365 345 ft 17 kts 275°
2026-05-05 11:33 46.93258 28.92162 352 ft 12 kts 276°
2026-05-05 11:33 46.93250 28.92045 355 ft 14 kts 220°
2026-05-05 11:33 46.93133 28.92000 357 ft 17 kts 192°
2026-05-05 11:33 46.93027 28.91988 358 ft 13 kts 181°
2026-05-05 11:34 46.92941 28.91988 359 ft 11 kts 175°
2026-05-05 11:34 46.92845 28.91993 360 ft 15 kts 178°
2026-05-05 11:34 46.92758 28.92066 358 ft 12 kts 93°
2026-05-05 11:34 46.92763 28.92313 350 ft 50 kts 89°
2026-05-05 11:35 46.92780 28.93105 328 ft 104 kts 90°
2026-05-05 11:35 46.92811 28.94404 296 ft 151 kts 88°
2026-05-05 11:35 46.92821 28.96098 544 ft 175 kts 88°
2026-05-05 11:35 46.92857 28.97802 1419 ft 166 kts 86°
2026-05-05 11:36 46.92903 28.99510 1871 ft 185 kts 87°
2026-05-05 11:36 46.92953 29.01498 2299 ft 200 kts 89°
2026-05-05 11:36 46.92968 29.03555 2725 ft 215 kts 89°
2026-05-05 11:36 46.92925 29.05809 3183 ft 231 kts 99°
2026-05-05 11:37 46.92229 29.07996 3643 ft 250 kts 130°
2026-05-05 11:37 46.90828 29.09527 4236 ft 263 kts 152°
2026-05-05 11:37 46.89044 29.10394 4797 ft 278 kts 171°
2026-05-05 11:37 46.87141 29.10101 5544 ft 283 kts 202°
2026-05-05 11:38 46.85566 29.08417 6264 ft 286 kts 231°
2026-05-05 11:38 46.84420 29.06050 6978 ft 290 kts 239°
2026-05-05 11:38 46.83364 29.03548 7690 ft 294 kts 240°
2026-05-05 11:38 46.82278 29.00982 8405 ft 298 kts 239°
2026-05-05 11:39 46.81165 28.98422 9077 ft 304 kts 238°
2026-05-05 11:39 46.80015 28.95835 9733 ft 310 kts 238°
2026-05-05 11:39 46.78828 28.93192 10384 ft 315 kts 238°
2026-05-05 11:39 46.77596 28.90455 10758 ft 332 kts 238°
2026-05-05 11:40 46.76305 28.87591 11154 ft 347 kts 238°
2026-05-05 11:40 46.74949 28.84581 11534 ft 363 kts 238°
2026-05-05 11:40 46.73541 28.81460 11905 ft 379 kts 238°
2026-05-05 11:40 46.72069 28.78202 12248 ft 394 kts 238°
2026-05-05 11:41 46.70542 28.74823 12678 ft 407 kts 238°
2026-05-05 11:41 46.68983 28.71380 13364 ft 411 kts 238°
2026-05-05 11:41 46.67403 28.67895 14109 ft 415 kts 238°
2026-05-05 11:41 46.65819 28.64403 14867 ft 418 kts 238°
2026-05-05 11:42 46.64154 28.60949 15589 ft 422 kts 233°
2026-05-05 11:42 46.62235 28.57698 16292 ft 427 kts 226°
2026-05-05 11:42 46.60039 28.54759 16984 ft 431 kts 220°
2026-05-05 11:42 46.57703 28.52083 17644 ft 435 kts 217°
2026-05-05 11:43 46.55264 28.49508 18324 ft 439 kts 215°
2026-05-05 11:43 46.52734 28.46926 18982 ft 442 kts 215°
2026-05-05 11:43 46.50243 28.44403 19636 ft 446 kts 215°
2026-05-05 11:43 46.47667 28.41779 20267 ft 450 kts 215°
2026-05-05 11:44 46.45119 28.39168 20916 ft 453 kts 215°
2026-05-05 11:44 46.42582 28.36556 21506 ft 456 kts 216°
2026-05-05 11:44 46.39986 28.33877 22095 ft 460 kts 215°
2026-05-05 11:44 46.37364 28.31168 22671 ft 464 kts 215°
2026-05-05 11:45 46.34733 28.28448 23288 ft 466 kts 215°
2026-05-05 11:45 46.32116 28.25741 23836 ft 470 kts 215°
2026-05-05 11:45 46.29459 28.22994 24393 ft 472 kts 215°
2026-05-05 11:45 46.26775 28.20219 24979 ft 475 kts 215°
2026-05-05 11:46 46.24097 28.17465 25551 ft 476 kts 214°
2026-05-05 11:46 46.21333 28.14847 26016 ft 479 kts 210°
2026-05-05 11:46 46.18344 28.12647 26550 ft 480 kts 201°
2026-05-05 11:46 46.15223 28.11130 27078 ft 480 kts 194°
2026-05-05 11:47 46.11982 28.10037 27523 ft 482 kts 190°
2026-05-05 11:47 46.08648 28.09164 28121 ft 480 kts 188°
2026-05-05 11:47 46.05354 28.08411 28851 ft 476 kts 187°
2026-05-05 11:47 46.02094 28.07696 29518 ft 473 kts 188°
2026-05-05 11:48 45.95596 28.06223 30710 ft 468 kts 188°
2026-05-05 11:48 45.92439 28.05476 31365 ft 463 kts 188°
2026-05-05 11:48 45.89259 28.04706 31944 ft 460 kts 188°
2026-05-05 11:49 45.86140 28.03938 32408 ft 458 kts 188°
2026-05-05 11:49 45.83010 28.03160 32827 ft 458 kts 188°
2026-05-05 11:49 45.79892 28.02381 33246 ft 457 kts 188°
2026-05-05 11:49 45.76748 28.01592 33703 ft 455 kts 189°
2026-05-05 11:50 45.73644 28.00811 34100 ft 454 kts 188°
2026-05-05 11:50 45.70551 28.00034 34435 ft 455 kts 188°
2026-05-05 11:50 45.67431 27.99249 34756 ft 455 kts 188°
2026-05-05 11:50 45.64329 27.98468 34967 ft 457 kts 188°
2026-05-05 11:51 45.58047 27.96891 35011 ft 460 kts 188°
2026-05-05 11:51 45.51787 27.95322 35014 ft 458 kts 188°
2026-05-05 11:52 45.45486 27.93806 35023 ft 458 kts 186°
2026-05-05 11:52 45.39168 27.93532 35024 ft 454 kts 173°
2026-05-05 11:53 45.32960 27.94945 35024 ft 454 kts 167°
2026-05-05 11:53 45.26777 27.96821 35033 ft 453 kts 166°
2026-05-05 11:54 45.20633 27.98716 35031 ft 453 kts 166°
2026-05-05 11:54 45.14475 28.00558 35035 ft 454 kts 167°
2026-05-05 11:55 45.08300 28.02359 35028 ft 453 kts 167°
2026-05-05 11:55 45.02106 28.04142 35028 ft 453 kts 167°
2026-05-05 11:56 44.95972 28.05897 35032 ft 453 kts 167°
2026-05-05 11:56 44.89811 28.07654 35033 ft 453 kts 167°
2026-05-05 11:57 44.83638 28.09408 35030 ft 453 kts 167°
2026-05-05 11:57 44.77440 28.11138 35039 ft 455 kts 167°
2026-05-05 11:58 44.71264 28.12807 35039 ft 454 kts 167°
2026-05-05 11:58 44.65073 28.14470 35041 ft 454 kts 167°
2026-05-05 11:59 44.58877 28.16134 35049 ft 454 kts 167°
2026-05-05 11:59 44.52698 28.17792 35050 ft 453 kts 167°
2026-05-05 12:00 44.46487 28.19459 35053 ft 454 kts 167°
2026-05-05 12:00 44.40302 28.21117 35053 ft 454 kts 167°
2026-05-05 12:01 44.34091 28.22779 35055 ft 454 kts 167°
2026-05-05 12:01 44.27906 28.24430 35058 ft 455 kts 167°
2026-05-05 12:02 44.21728 28.26076 35053 ft 453 kts 167°
2026-05-05 12:02 44.15526 28.27724 35056 ft 453 kts 167°
2026-05-05 12:03 44.09343 28.29364 35064 ft 454 kts 167°
2026-05-05 12:03 44.03171 28.30998 35075 ft 454 kts 167°
2026-05-05 12:04 43.96961 28.32637 35075 ft 453 kts 167°
2026-05-05 12:04 43.90757 28.34273 35076 ft 455 kts 167°
2026-05-05 12:05 43.84565 28.35901 35080 ft 456 kts 167°
2026-05-05 12:05 43.78321 28.37540 35084 ft 457 kts 167°
2026-05-05 12:06 43.72097 28.39169 35078 ft 457 kts 167°
2026-05-05 12:06 43.65848 28.40802 35083 ft 460 kts 167°
2026-05-05 12:07 43.59534 28.42449 35074 ft 461 kts 168°
2026-05-05 12:07 43.53270 28.44078 35065 ft 461 kts 168°
2026-05-05 12:08 43.46942 28.45629 35064 ft 462 kts 169°
2026-05-05 12:08 43.40621 28.47058 35064 ft 464 kts 169°
2026-05-05 12:09 43.34244 28.48481 35069 ft 464 kts 169°
2026-05-05 12:09 43.27875 28.49911 35067 ft 463 kts 169°
2026-05-05 12:10 43.21541 28.51342 35066 ft 465 kts 169°
2026-05-05 12:10 43.15149 28.52788 35064 ft 464 kts 169°
2026-05-05 12:11 43.08803 28.54223 35069 ft 465 kts 169°
2026-05-05 12:11 43.02415 28.55666 35073 ft 467 kts 169°
2026-05-05 12:12 42.96026 28.57106 35070 ft 466 kts 169°
2026-05-05 12:12 42.89615 28.58549 35071 ft 467 kts 169°
2026-05-05 12:13 42.83216 28.59987 35070 ft 466 kts 169°
2026-05-05 12:13 42.76841 28.61415 35078 ft 466 kts 169°
2026-05-05 12:14 42.70457 28.62842 35068 ft 467 kts 169°
2026-05-05 12:14 42.64021 28.64278 35068 ft 468 kts 169°
2026-05-05 12:15 42.57618 28.65703 35081 ft 468 kts 170°
2026-05-05 12:15 42.51205 28.67128 35068 ft 467 kts 170°
2026-05-05 12:16 42.44796 28.68549 35065 ft 468 kts 170°
2026-05-05 12:16 42.38360 28.69973 35070 ft 468 kts 170°
2026-05-05 12:17 42.31949 28.71389 35070 ft 469 kts 170°
2026-05-05 12:17 42.25536 28.72802 35070 ft 470 kts 170°
2026-05-05 12:18 42.19071 28.74223 35067 ft 469 kts 170°
2026-05-05 12:18 42.12639 28.75634 35068 ft 470 kts 170°
2026-05-05 12:19 42.06182 28.76848 35070 ft 470 kts 175°
2026-05-05 12:19 41.99656 28.77267 35066 ft 469 kts 178°
2026-05-05 12:20 41.93146 28.77415 35066 ft 471 kts 179°
2026-05-05 12:20 41.86631 28.77566 35066 ft 470 kts 179°
2026-05-05 12:21 41.80075 28.77760 35063 ft 471 kts 178°
2026-05-05 12:21 41.73522 28.77985 35059 ft 470 kts 179°
2026-05-05 12:22 41.66991 28.78227 35059 ft 470 kts 178°
2026-05-05 12:22 41.60495 28.78477 35064 ft 470 kts 178°
2026-05-05 12:23 41.53969 28.78731 35060 ft 471 kts 178°
2026-05-05 12:23 41.47385 28.78987 35055 ft 472 kts 178°
2026-05-05 12:24 41.40847 28.79242 35061 ft 471 kts 178°
2026-05-05 12:24 41.34282 28.79498 35059 ft 472 kts 179°
2026-05-05 12:25 41.27738 28.79752 35054 ft 471 kts 179°
2026-05-05 12:25 41.21225 28.80006 35061 ft 470 kts 179°
2026-05-05 12:26 41.14658 28.80278 35056 ft 471 kts 179°
2026-05-05 12:26 41.08112 28.80557 35057 ft 471 kts 179°
2026-05-05 12:27 41.01562 28.80837 35054 ft 471 kts 179°
2026-05-05 12:27 40.95053 28.81451 35057 ft 470 kts 172°
2026-05-05 12:28 40.88588 28.83058 35058 ft 472 kts 168°
2026-05-05 12:28 40.82219 28.85008 35062 ft 471 kts 167°
2026-05-05 12:29 40.75864 28.86990 35052 ft 471 kts 167°
2026-05-05 12:29 40.69439 28.88951 35052 ft 474 kts 167°
2026-05-05 12:30 40.63048 28.90865 35046 ft 471 kts 167°
2026-05-05 12:30 40.56634 28.92766 35046 ft 473 kts 168°
2026-05-05 12:31 40.50198 28.94661 35047 ft 473 kts 168°
2026-05-05 12:31 40.43798 28.96541 35049 ft 473 kts 168°
2026-05-05 12:32 40.37345 28.98432 35053 ft 474 kts 168°
2026-05-05 12:32 40.30935 29.00308 35071 ft 473 kts 168°
2026-05-05 12:33 40.24507 29.02186 35050 ft 473 kts 168°
2026-05-05 12:33 40.18078 29.04060 35072 ft 475 kts 168°
2026-05-05 12:34 40.11590 29.05947 35054 ft 476 kts 168°
2026-05-05 12:34 40.05117 29.07826 35044 ft 476 kts 168°
2026-05-05 12:35 39.98680 29.09691 35035 ft 476 kts 168°
2026-05-05 12:35 39.92218 29.11559 35051 ft 477 kts 168°
2026-05-05 12:36 39.85711 29.13438 35024 ft 476 kts 168°
2026-05-05 12:36 39.79236 29.15360 35036 ft 478 kts 166°
2026-05-05 12:37 39.72916 29.18014 35047 ft 479 kts 160°
2026-05-05 12:37 39.66666 29.21155 35053 ft 479 kts 159°
2026-05-05 12:38 39.60494 29.24321 35056 ft 480 kts 159°
2026-05-05 12:38 39.54259 29.27460 35056 ft 481 kts 159°
2026-05-05 12:39 39.48005 29.30555 35054 ft 481 kts 160°
2026-05-05 12:39 39.41745 29.33625 35049 ft 481 kts 160°
2026-05-05 12:40 39.35495 29.36673 35060 ft 483 kts 160°
2026-05-05 12:40 39.29211 29.39731 35032 ft 482 kts 160°
2026-05-05 12:41 39.22925 29.42782 35033 ft 483 kts 160°
2026-05-05 12:41 39.16621 29.45837 35031 ft 483 kts 160°
2026-05-05 12:42 39.10320 29.48886 35046 ft 483 kts 160°
2026-05-05 12:42 39.04033 29.51922 35051 ft 483 kts 160°
2026-05-05 12:43 38.97775 29.54939 35045 ft 483 kts 160°
2026-05-05 12:43 38.91460 29.57976 35046 ft 484 kts 160°
2026-05-05 12:44 38.85106 29.61028 35051 ft 485 kts 160°
2026-05-05 12:44 38.78795 29.64071 35051 ft 486 kts 159°
2026-05-05 12:45 38.72712 29.67831 35046 ft 488 kts 150°
2026-05-05 12:45 38.67026 29.72553 35044 ft 488 kts 146°
2026-05-05 12:46 38.61462 29.77589 35037 ft 489 kts 145°
2026-05-05 12:46 38.55935 29.82607 35037 ft 488 kts 145°
2026-05-05 12:47 38.50372 29.87582 35033 ft 490 kts 146°
2026-05-05 12:47 38.44784 29.92526 35020 ft 490 kts 146°
2026-05-05 12:48 38.41999 29.94983 34865 ft 486 kts 146°
2026-05-05 12:48 38.39243 29.97417 34382 ft 484 kts 146°
2026-05-05 12:48 38.36447 29.99885 33624 ft 485 kts 146°
2026-05-05 12:48 38.33696 30.02309 32830 ft 488 kts 146°
2026-05-05 12:49 38.30877 30.04791 31976 ft 491 kts 146°
2026-05-05 12:49 38.28073 30.07258 31095 ft 495 kts 146°
2026-05-05 12:49 38.25227 30.09758 30168 ft 498 kts 146°
2026-05-05 12:49 38.22384 30.12254 29199 ft 501 kts 146°
2026-05-05 12:50 38.19524 30.14760 28207 ft 505 kts 146°
2026-05-05 12:50 38.16635 30.17292 27262 ft 506 kts 146°
2026-05-05 12:50 38.13728 30.19837 26612 ft 501 kts 146°
2026-05-05 12:50 38.10883 30.22325 25956 ft 496 kts 146°
2026-05-05 12:51 38.08078 30.24776 25544 ft 486 kts 146°
2026-05-05 12:51 38.05332 30.27174 25345 ft 472 kts 146°
2026-05-05 12:51 38.02680 30.29486 25188 ft 458 kts 146°
2026-05-05 12:51 38.00084 30.31785 25034 ft 445 kts 144°
2026-05-05 12:52 37.97672 30.34075 25042 ft 428 kts 142°
2026-05-05 12:52 37.95363 30.36376 25052 ft 412 kts 141°
2026-05-05 12:52 37.93174 30.38600 25058 ft 399 kts 141°
2026-05-05 12:52 37.90987 30.40775 25060 ft 401 kts 144°
2026-05-05 12:53 37.88567 30.42565 25059 ft 401 kts 160°
2026-05-05 12:53 37.85890 30.43407 25065 ft 396 kts 178°
2026-05-05 12:53 37.83138 30.43438 24873 ft 385 kts 189°
2026-05-05 12:53 37.80545 30.42841 24303 ft 380 kts 201°
2026-05-05 12:54 37.75820 30.40208 23346 ft 366 kts 216°
2026-05-05 12:54 37.73682 30.38504 22899 ft 362 kts 219°
2026-05-05 12:54 37.71615 30.36718 22484 ft 358 kts 220°
2026-05-05 12:55 37.69583 30.34927 22072 ft 355 kts 220°
2026-05-05 12:55 37.67573 30.33161 21645 ft 354 kts 220°
2026-05-05 12:55 37.65555 30.31402 21211 ft 352 kts 220°
2026-05-05 12:55 37.63516 30.29659 20777 ft 351 kts 218°
2026-05-05 12:56 37.61422 30.28103 20330 ft 353 kts 210°
2026-05-05 12:56 37.59103 30.27033 19906 ft 357 kts 197°
2026-05-05 12:56 37.56665 30.26480 19492 ft 357 kts 190°
2026-05-05 12:56 37.54226 30.26178 19093 ft 355 kts 187°
2026-05-05 12:57 37.51761 30.25944 18687 ft 353 kts 186°
2026-05-05 12:57 37.49323 30.25716 18284 ft 351 kts 187°
2026-05-05 12:57 37.46882 30.25453 17902 ft 348 kts 187°
2026-05-05 12:57 37.44482 30.25158 17501 ft 346 kts 188°
2026-05-05 12:58 37.42106 30.24843 17142 ft 343 kts 188°
2026-05-05 12:58 37.39749 30.24522 16773 ft 340 kts 188°
2026-05-05 12:58 37.37409 30.24199 16431 ft 337 kts 188°
2026-05-05 12:58 37.35093 30.23878 16062 ft 334 kts 188°
2026-05-05 12:59 37.32804 30.23560 15682 ft 332 kts 187°
2026-05-05 12:59 37.30517 30.23246 15290 ft 330 kts 187°
2026-05-05 12:59 37.28233 30.22934 14931 ft 327 kts 187°
2026-05-05 13:00 37.23767 30.22324 14216 ft 322 kts 187°
2026-05-05 13:00 37.21549 30.22020 13851 ft 320 kts 187°
2026-05-05 13:01 37.15085 30.21832 13170 ft 295 kts 161°
2026-05-05 13:01 37.13314 30.22991 13040 ft 281 kts 140°
2026-05-05 13:01 37.12051 30.24776 12736 ft 274 kts 120°
2026-05-05 13:01 37.11211 30.26890 12434 ft 271 kts 109°
2026-05-05 13:02 37.10667 30.29136 12128 ft 268 kts 101°
2026-05-05 13:02 37.10422 30.31404 12027 ft 262 kts 85°
2026-05-05 13:02 37.10872 30.33596 12022 ft 262 kts 61°
2026-05-05 13:02 37.11916 30.35450 12028 ft 260 kts 45°
2026-05-05 13:03 37.13240 30.36963 12023 ft 257 kts 33°
2026-05-05 13:03 37.14843 30.37893 12020 ft 254 kts 11°
2026-05-05 13:03 37.16617 30.38187 12019 ft 254 kts
2026-05-05 13:03 37.18355 30.38376 12021 ft 254 kts
2026-05-05 13:04 37.20131 30.38589 12026 ft 254 kts
2026-05-05 13:04 37.21901 30.38820 12022 ft 254 kts
2026-05-05 13:04 37.23640 30.39055 12022 ft 254 kts
2026-05-05 13:04 37.25418 30.39296 12023 ft 255 kts
2026-05-05 13:05 37.27174 30.39532 12021 ft 254 kts
2026-05-05 13:05 37.28924 30.39767 12030 ft 254 kts
2026-05-05 13:05 37.30661 30.40000 11909 ft 249 kts
2026-05-05 13:05 37.32393 30.40233 11516 ft 252 kts
2026-05-05 13:06 37.34153 30.40469 11197 ft 252 kts
2026-05-05 13:06 37.35881 30.40701 11038 ft 248 kts
2026-05-05 13:06 37.37592 30.40931 11031 ft 250 kts
2026-05-05 13:06 37.39354 30.41168 11028 ft 252 kts
2026-05-05 13:07 37.41099 30.41403 11033 ft 251 kts
2026-05-05 13:07 37.42767 30.41941 11027 ft 253 kts 28°
2026-05-05 13:07 37.44028 30.43511 11028 ft 258 kts 59°
2026-05-05 13:07 37.44572 30.45666 10848 ft 263 kts 83°
2026-05-05 13:08 37.44459 30.47947 10594 ft 262 kts 102°
2026-05-05 13:08 37.43697 30.49966 10345 ft 262 kts 129°
2026-05-05 13:08 37.42371 30.51537 10095 ft 262 kts 140°
2026-05-05 13:08 37.40947 30.52952 9841 ft 260 kts 140°
2026-05-05 13:09 37.39526 30.54385 9584 ft 260 kts 139°
2026-05-05 13:09 37.38139 30.55839 9331 ft 259 kts 139°
2026-05-05 13:09 37.36771 30.57305 9077 ft 258 kts 138°
2026-05-05 13:09 37.35421 30.58759 8826 ft 257 kts 138°
2026-05-05 13:10 37.34070 30.60215 8573 ft 256 kts 138°
2026-05-05 13:10 37.32720 30.61669 8324 ft 255 kts 138°
2026-05-05 13:10 37.31366 30.63125 8069 ft 254 kts 138°
2026-05-05 13:10 37.30024 30.64564 7820 ft 253 kts 138°
2026-05-05 13:11 37.28695 30.65987 7579 ft 252 kts 139°
2026-05-05 13:11 37.27372 30.67405 7421 ft 244 kts 138°
2026-05-05 13:11 37.26202 30.68930 7211 ft 248 kts 123°
2026-05-05 13:11 37.25593 30.70933 7014 ft 243 kts 92°
2026-05-05 13:12 37.25805 30.72973 6698 ft 240 kts 69°
2026-05-05 13:12 37.26460 30.74900 6366 ft 240 kts 63°
2026-05-05 13:12 37.27158 30.76806 6093 ft 239 kts 64°
2026-05-05 13:12 37.27782 30.78691 5933 ft 233 kts 71°
2026-05-05 13:13 37.27949 30.80666 5801 ft 225 kts 97°
2026-05-05 13:13 37.27470 30.82471 5808 ft 214 kts 122°
2026-05-05 13:13 37.26360 30.83681 5824 ft 216 kts 154°
2026-05-05 13:13 37.24937 30.84148 5819 ft 210 kts 175°
2026-05-05 13:14 37.23432 30.84023 5814 ft 222 kts 199°
2026-05-05 13:14 37.21964 30.83226 5808 ft 236 kts 206°
2026-05-05 13:14 37.20379 30.82696 5796 ft 239 kts 184°
2026-05-05 13:14 37.18694 30.82727 5762 ft 241 kts 177°
2026-05-05 13:15 37.17005 30.82843 5382 ft 248 kts 178°
2026-05-05 13:15 37.15239 30.82801 4763 ft 261 kts 185°
2026-05-05 13:15 37.13456 30.82527 4415 ft 253 kts 189°
2026-05-05 13:15 37.11726 30.82234 4102 ft 245 kts 188°
2026-05-05 13:16 37.10062 30.82000 3817 ft 237 kts 187°
2026-05-05 13:16 37.08450 30.81790 3499 ft 232 kts 187°
2026-05-05 13:16 37.06863 30.81577 3191 ft 226 kts 187°
2026-05-05 13:16 37.05318 30.81361 2873 ft 221 kts 188°
2026-05-05 13:17 37.03811 30.81154 2583 ft 214 kts 187°
2026-05-05 13:17 37.02333 30.80951 2284 ft 208 kts 187°
2026-05-05 13:17 37.00943 30.80760 2011 ft 195 kts 188°
2026-05-05 13:17 36.99627 30.80581 1748 ft 182 kts 189°
2026-05-05 13:18 36.98412 30.80416 1544 ft 167 kts 189°
2026-05-05 13:18 36.97264 30.80256 1300 ft 165 kts 188°
2026-05-05 13:18 36.96107 30.80098 1100 ft 166 kts 188°
2026-05-05 13:18 36.94958 30.79967 855 ft 167 kts 189°
2026-05-05 13:19 36.93826 30.79808 649 ft 161 kts 188°
2026-05-05 13:19 36.92729 30.79652 453 ft 156 kts 188°
2026-05-05 13:19 36.91619 30.79489 245 ft 165 kts 187°
2026-05-05 13:19 36.90507 30.79334 185 ft 139 kts 188°
2026-05-05 13:20 36.89836 30.79239 185 ft 61 kts 187°
2026-05-05 13:20 36.89539 30.79261 185 ft 30 kts 157°
2026-05-05 13:20 36.89426 30.79324 185 ft 5 kts 155°
2026-05-05 13:20 36.89400 30.79341 185 ft 11 kts 137°
2026-05-05 13:21 36.89499 30.79414 185 ft 25 kts
2026-05-05 13:21 36.89666 30.79466 185 ft 22 kts 69°
2026-05-05 13:21 36.89653 30.79660 185 ft 19 kts 96°
2026-05-05 13:21 36.89640 30.79800 185 ft 13 kts 96°
2026-05-05 13:22 36.89630 30.79909 185 ft 11 kts 96°
2026-05-05 13:22 36.89623 30.80008 184 ft 12 kts 84°
2026-05-05 13:22 36.89697 30.80080 185 ft 12 kts 28°
2026-05-05 13:22 36.89701 30.80083 185 ft 0 kts 30°
2026-05-05 13:23 36.89700 30.80082 185 ft 0 kts 30°